Time,TemperatureF,DewpointF,PressureIn,WindDirection,WindDirectionDegrees,WindSpeedMPH,WindSpeedGustMPH,Humidity,HourlyPrecipIn,Conditions,Clouds,dailyrainin,SoftwareType,DateUTC
2013-04-20 00:00:00,58.5,39.4,29.65,SSE,158,5.6,5.6,49,0.00,,---,0.00,VWS V14.01,2013-04-19 14:00:00,
2013-04-20 00:05:00,58.5,39.4,29.65,WSW,248,3.4,3.4,49,0.00,,---,0.00,VWS V14.01,2013-04-19 14:05:00,
2013-04-20 00:10:00,58.5,39.4,29.65,WNW,292,5.6,5.6,49,0.00,,---,0.00,VWS V14.01,2013-04-19 14:10:00,
2013-04-20 00:15:00,58.5,39.4,29.62,South,180,7.6,7.6,49,0.00,,---,0.00,VWS V14.01,2013-04-19 14:15:00,
2013-04-20 00:20:00,58.5,39.4,29.62,SW,225,3.8,3.8,49,0.00,,---,0.00,VWS V14.01,2013-04-19 14:20:00,
2013-04-20 00:25:00,58.3,39.2,29.62,WSW,248,9.4,9.4,49,0.00,,---,0.00,VWS V14.01,2013-04-19 14:25:00,
2013-04-20 00:30:00,58.3,39.2,29.62,SE,135,7.4,7.4,49,0.00,,---,0.00,VWS V14.01,2013-04-19 14:30:00,
2013-04-20 00:35:00,58.3,39.7,29.62,South,180,5.6,5.6,50,0.00,,---,0.00,VWS V14.01,2013-04-19 14:35:00,
2013-04-20 00:40:00,58.1,39.6,29.62,SE,135,4.9,5.4,50,0.00,,---,0.00,VWS V14.01,2013-04-19 14:40:00,
2013-04-20 00:45:00,58.1,39.6,29.62,SSW,202,6.7,6.7,50,0.00,,---,0.00,VWS V14.01,2013-04-19 14:45:00,
2013-04-20 00:50:00,58.1,39.6,29.62,SSE,158,3.1,8.1,50,0.00,,---,0.00,VWS V14.01,2013-04-19 14:50:00,
2013-04-20 00:55:00,58.1,39.6,29.62,South,180,4.3,4.3,50,0.00,,---,0.00,VWS V14.01,2013-04-19 14:55:00,
2013-04-20 01:00:00,58.1,40.1,29.62,West,270,3.4,3.4,51,0.00,,---,0.00,VWS V14.01,2013-04-19 15:00:00,
2013-04-20 01:05:00,57.9,39.9,29.62,West,270,6.5,6.5,51,0.00,,---,0.00,VWS V14.01,2013-04-19 15:05:00,
2013-04-20 01:10:00,57.9,39.9,29.62,SW,225,3.4,4.9,51,0.00,,---,0.00,VWS V14.01,2013-04-19 15:10:00,
2013-04-20 01:15:00,58.1,40.1,29.62,South,180,3.8,3.8,51,0.00,,---,0.00,VWS V14.01,2013-04-19 15:15:00,
2013-04-20 01:20:00,58.1,40.6,29.62,SW,225,3.6,6.3,52,0.00,,---,0.00,VWS V14.01,2013-04-19 15:20:00,
2013-04-20 01:25:00,58.3,40.8,29.62,NW,315,2.5,2.5,52,0.00,,---,0.00,VWS V14.01,2013-04-19 15:25:00,
2013-04-20 01:30:00,58.3,40.8,29.62,SSW,202,6.5,6.5,52,0.00,,---,0.00,VWS V14.01,2013-04-19 15:30:00,
2013-04-20 01:35:00,58.3,41.2,29.62,ESE,112,3.6,3.6,53,0.00,,---,0.00,VWS V14.01,2013-04-19 15:35:00,
2013-04-20 01:40:00,58.3,41.2,29.62,SE,135,2.9,2.9,53,0.00,,---,0.00,VWS V14.01,2013-04-19 15:40:00,
2013-04-20 01:45:00,58.1,41.1,29.62,WSW,248,4.9,4.9,53,0.00,,---,0.00,VWS V14.01,2013-04-19 15:45:00,
2013-04-20 01:50:00,58.1,41.6,29.62,SSE,158,2.9,3.1,54,0.00,,---,0.00,VWS V14.01,2013-04-19 15:50:00,
2013-04-20 01:55:00,57.9,41.4,29.62,SW,225,5.4,5.4,54,0.00,,---,0.00,VWS V14.01,2013-04-19 15:55:00,
2013-04-20 02:00:00,57.9,41.9,29.62,SSE,158,3.4,5.6,55,0.00,,---,0.00,VWS V14.01,2013-04-19 16:00:00,
2013-04-20 02:05:00,57.9,41.9,29.62,South,180,7.2,8.1,55,0.00,,---,0.00,VWS V14.01,2013-04-19 16:05:00,
2013-04-20 02:10:00,57.9,42.3,29.62,West,270,6.0,6.0,56,0.00,,---,0.00,VWS V14.01,2013-04-19 16:10:00,
2013-04-20 02:15:00,57.9,42.3,29.59,SW,225,2.9,4.0,56,0.00,,---,0.00,VWS V14.01,2013-04-19 16:15:00,
2013-04-20 02:20:00,58.1,43.0,29.59,WSW,248,4.0,4.0,57,0.00,,---,0.00,VWS V14.01,2013-04-19 16:20:00,
2013-04-20 02:25:00,58.1,43.0,29.59,SSW,202,2.0,2.0,57,0.00,,---,0.00,VWS V14.01,2013-04-19 16:25:00,
2013-04-20 02:30:00,58.1,43.0,29.59,SW,225,10.7,10.7,57,0.00,,---,0.00,VWS V14.01,2013-04-19 16:30:00,
2013-04-20 02:35:00,58.1,43.4,29.59,SSW,202,3.1,3.1,58,0.00,,---,0.00,VWS V14.01,2013-04-19 16:35:00,
2013-04-20 02:40:00,58.1,43.4,29.59,WSW,248,3.6,7.8,58,0.00,,---,0.00,VWS V14.01,2013-04-19 16:40:00,
2013-04-20 02:45:00,57.9,43.7,29.59,SW,225,3.8,5.6,59,0.00,,---,0.00,VWS V14.01,2013-04-19 16:45:00,
2013-04-20 02:50:00,57.9,44.1,29.59,SE,135,3.1,3.1,60,0.00,,---,0.00,VWS V14.01,2013-04-19 16:50:00,
2013-04-20 02:55:00,57.7,44.4,29.59,South,180,6.5,6.5,61,0.00,,---,0.00,VWS V14.01,2013-04-19 16:55:00,
2013-04-20 03:00:00,57.7,44.4,29.59,SW,225,5.6,6.0,61,0.00,,---,0.00,VWS V14.01,2013-04-19 17:00:00,
2013-04-20 03:05:00,57.9,44.6,29.59,WSW,248,5.6,5.6,61,0.00,,---,0.00,VWS V14.01,2013-04-19 17:05:00,
2013-04-20 03:10:00,57.9,45.0,29.59,SSW,202,7.4,7.4,62,0.00,,---,0.00,VWS V14.01,2013-04-19 17:10:00,
2013-04-20 03:15:00,57.9,45.0,29.59,SE,135,2.7,4.7,62,0.00,,---,0.00,VWS V14.01,2013-04-19 17:15:00,
2013-04-20 03:20:00,57.9,45.4,29.59,SSW,202,3.4,3.4,63,0.00,,---,0.00,VWS V14.01,2013-04-19 17:20:00,
2013-04-20 03:25:00,57.9,45.8,29.59,SSE,158,4.3,4.3,64,0.00,,---,0.00,VWS V14.01,2013-04-19 17:25:00,
2013-04-20 03:30:00,57.9,45.8,29.59,WSW,248,6.0,6.0,64,0.00,,---,0.00,VWS V14.01,2013-04-19 17:30:00,
2013-04-20 03:35:00,57.9,46.2,29.59,SSW,202,6.5,6.5,65,0.00,,---,0.00,VWS V14.01,2013-04-19 17:35:00,
2013-04-20 03:40:00,57.9,46.2,29.59,ESE,112,5.8,6.0,65,0.00,,---,0.00,VWS V14.01,2013-04-19 17:40:00,
2013-04-20 03:45:00,57.7,46.5,29.59,South,180,2.0,2.7,66,0.00,,---,0.00,VWS V14.01,2013-04-19 17:45:00,
2013-04-20 03:50:00,57.9,46.6,29.59,WSW,248,5.6,5.6,66,0.00,,---,0.00,VWS V14.01,2013-04-19 17:50:00,
2013-04-20 03:55:00,57.9,46.6,29.59,East,90,5.4,5.4,66,0.00,,---,0.00,VWS V14.01,2013-04-19 17:55:00,
2013-04-20 04:00:00,57.9,47.4,29.59,SSE,158,6.5,6.5,68,0.00,,---,0.00,VWS V14.01,2013-04-19 18:00:00,
2013-04-20 04:05:00,57.9,46.6,29.59,SW,225,3.8,3.8,66,0.00,,---,0.00,VWS V14.01,2013-04-19 18:05:00,
2013-04-20 04:10:00,58.1,46.8,29.59,SW,225,7.4,7.4,66,0.00,,---,0.00,VWS V14.01,2013-04-19 18:10:00,
2013-04-20 04:15:00,58.1,46.8,29.59,SSW,202,4.9,12.8,66,0.00,,---,0.00,VWS V14.01,2013-04-19 18:15:00,
2013-04-20 04:20:00,58.1,46.8,29.59,SW,225,8.1,8.1,66,0.00,,---,0.00,VWS V14.01,2013-04-19 18:20:00,
2013-04-20 04:25:00,58.1,46.8,29.59,SSE,158,3.8,3.8,66,0.00,,---,0.00,VWS V14.01,2013-04-19 18:25:00,
2013-04-20 04:30:00,58.3,47.4,29.59,SE,135,4.5,6.0,67,0.00,,---,0.00,VWS V14.01,2013-04-19 18:30:00,
2013-04-20 04:35:00,58.1,47.2,29.59,South,180,3.1,6.3,67,0.00,,---,0.00,VWS V14.01,2013-04-19 18:35:00,
2013-04-20 04:40:00,58.1,47.6,29.59,South,180,8.7,8.7,68,0.00,,---,0.00,VWS V14.01,2013-04-19 18:40:00,
2013-04-20 04:45:00,57.9,47.8,29.59,SW,225,2.9,4.0,69,0.00,,---,0.00,VWS V14.01,2013-04-19 18:45:00,
2013-04-20 04:50:00,57.9,48.2,29.59,SSE,158,2.0,4.3,70,0.00,,---,0.00,VWS V14.01,2013-04-19 18:50:00,
2013-04-20 04:55:00,57.9,47.8,29.59,SSE,158,4.9,6.3,69,0.00,,---,0.00,VWS V14.01,2013-04-19 18:55:00,
2013-04-20 05:00:00,57.9,47.8,29.59,SSW,202,2.5,4.9,69,0.00,,---,0.00,VWS V14.01,2013-04-19 19:00:00,
2013-04-20 05:05:00,57.9,48.6,29.59,South,180,2.0,2.0,71,0.00,,---,0.00,VWS V14.01,2013-04-19 19:05:00,
2013-04-20 05:10:00,57.9,48.2,29.62,SSE,158,9.0,9.0,70,0.00,,---,0.00,VWS V14.01,2013-04-19 19:10:00,
2013-04-20 05:15:00,57.9,48.6,29.62,SW,225,2.9,2.9,71,0.00,,---,0.00,VWS V14.01,2013-04-19 19:15:00,
2013-04-20 05:20:00,57.9,49.0,29.62,South,180,9.2,9.2,72,0.00,,---,0.00,VWS V14.01,2013-04-19 19:20:00,
2013-04-20 05:25:00,57.9,49.0,29.62,WSW,248,2.5,3.8,72,0.00,,---,0.00,VWS V14.01,2013-04-19 19:25:00,
2013-04-20 05:30:00,57.9,49.7,29.62,SW,225,3.6,3.6,74,0.00,,---,0.00,VWS V14.01,2013-04-19 19:30:00,
2013-04-20 05:35:00,57.9,49.0,29.62,South,180,4.9,4.9,72,0.00,,---,0.00,VWS V14.01,2013-04-19 19:35:00,
2013-04-20 05:40:00,57.9,49.3,29.62,SE,135,6.0,6.0,73,0.00,,---,0.00,VWS V14.01,2013-04-19 19:40:00,
2013-04-20 05:45:00,57.9,49.0,29.62,SE,135,3.6,3.6,72,0.00,,---,0.00,VWS V14.01,2013-04-19 19:45:00,
2013-04-20 05:50:00,57.9,49.3,29.62,SSE,158,7.8,7.8,73,0.00,,---,0.00,VWS V14.01,2013-04-19 19:50:00,
2013-04-20 05:55:00,57.9,49.7,29.62,WNW,292,3.8,3.8,74,0.00,,---,0.00,VWS V14.01,2013-04-19 19:55:00,
2013-04-20 06:00:00,57.9,50.0,29.62,SSE,158,5.4,5.4,75,0.00,,---,0.00,VWS V14.01,2013-04-19 20:00:00,
2013-04-20 06:05:00,57.9,49.7,29.62,SE,135,4.9,4.9,74,0.00,,---,0.00,VWS V14.01,2013-04-19 20:05:00,
2013-04-20 06:10:00,57.9,49.7,29.62,East,90,4.7,4.7,74,0.00,,---,0.00,VWS V14.01,2013-04-19 20:10:00,
2013-04-20 06:15:00,57.7,50.2,29.62,WSW,248,4.0,4.3,76,0.00,,---,0.00,VWS V14.01,2013-04-19 20:15:00,
2013-04-20 06:20:00,57.7,49.9,29.62,SE,135,3.8,3.8,75,0.00,,---,0.00,VWS V14.01,2013-04-19 20:20:00,
2013-04-20 06:25:00,57.6,49.7,29.62,WSW,248,8.1,8.1,75,0.00,,---,0.00,VWS V14.01,2013-04-19 20:25:00,
2013-04-20 06:30:00,57.6,50.1,29.62,SW,225,3.1,3.1,76,0.00,,---,0.00,VWS V14.01,2013-04-19 20:30:00,
2013-04-20 06:35:00,57.6,51.1,29.62,South,180,3.8,3.8,79,0.00,,---,0.00,VWS V14.01,2013-04-19 20:35:00,
2013-04-20 06:40:00,57.6,50.4,29.62,SSW,202,5.8,5.8,77,0.00,,---,0.00,VWS V14.01,2013-04-19 20:40:00,
2013-04-20 06:45:00,57.6,50.8,29.62,SSE,158,2.9,2.9,78,0.00,,---,0.00,VWS V14.01,2013-04-19 20:45:00,
2013-04-20 06:50:00,57.6,51.1,29.62,SE,135,6.5,6.5,79,0.00,,---,0.00,VWS V14.01,2013-04-19 20:50:00,
2013-04-20 06:55:00,57.6,51.1,29.65,South,180,3.6,3.6,79,0.00,,---,0.00,VWS V14.01,2013-04-19 20:55:00,
2013-04-20 07:00:00,57.6,51.1,29.65,SSE,158,2.9,4.3,79,0.00,,---,0.00,VWS V14.01,2013-04-19 21:00:00,
2013-04-20 07:05:00,57.6,51.5,29.65,SSW,202,1.6,1.6,80,0.00,,---,0.00,VWS V14.01,2013-04-19 21:05:00,
2013-04-20 07:10:00,57.6,51.5,29.65,West,270,3.1,3.1,80,0.00,,---,0.00,VWS V14.01,2013-04-19 21:10:00,
2013-04-20 07:15:00,57.6,51.5,29.65,SSE,158,2.0,6.0,80,0.00,,---,0.00,VWS V14.01,2013-04-19 21:15:00,
2013-04-20 07:20:00,57.6,51.8,29.65,WSW,248,3.6,3.6,81,0.00,,---,0.00,VWS V14.01,2013-04-19 21:20:00,
2013-04-20 07:25:00,57.6,52.1,29.65,SSE,158,4.0,4.0,82,0.04,,---,0.04,VWS V14.01,2013-04-19 21:25:00,
2013-04-20 07:30:00,57.6,51.8,29.65,SSE,158,4.7,4.7,81,0.04,,---,0.04,VWS V14.01,2013-04-19 21:30:00,
2013-04-20 07:35:00,57.6,51.8,29.65,SW,225,2.5,2.5,81,0.04,,---,0.04,VWS V14.01,2013-04-19 21:35:00,
2013-04-20 07:40:00,57.6,52.1,29.65,WSW,248,3.8,5.4,82,0.04,,---,0.04,VWS V14.01,2013-04-19 21:40:00,
2013-04-20 07:45:00,57.6,52.1,29.65,SW,225,4.3,4.9,82,0.04,,---,0.04,VWS V14.01,2013-04-19 21:45:00,
2013-04-20 07:50:00,57.6,52.1,29.65,West,270,5.6,5.6,82,0.08,,---,0.08,VWS V14.01,2013-04-19 21:50:00,
2013-04-20 07:55:00,57.7,52.3,29.65,South,180,6.0,6.0,82,0.08,,---,0.08,VWS V14.01,2013-04-19 21:55:00,
2013-04-20 08:00:00,57.7,52.3,29.65,SSW,202,2.9,2.9,82,0.08,,---,0.08,VWS V14.01,2013-04-19 22:00:00,
2013-04-20 08:05:00,57.6,52.8,29.65,South,180,5.6,5.6,84,0.08,,---,0.08,VWS V14.01,2013-04-19 22:05:00,
2013-04-20 08:10:00,57.6,52.4,29.65,SSE,158,1.6,2.7,83,0.12,,---,0.12,VWS V14.01,2013-04-19 22:10:00,
2013-04-20 08:15:00,57.7,52.6,29.65,WSW,248,2.7,2.7,83,0.17,,---,0.17,VWS V14.01,2013-04-19 22:15:00,
2013-04-20 08:20:00,57.7,52.6,29.65,SSE,158,3.6,3.6,83,0.17,,---,0.17,VWS V14.01,2013-04-19 22:20:00,
2013-04-20 08:25:00,57.7,52.6,29.65,SW,225,2.5,3.8,83,0.13,,---,0.17,VWS V14.01,2013-04-19 22:25:00,
2013-04-20 08:30:00,57.7,52.6,29.65,South,180,5.6,5.6,83,0.13,,---,0.17,VWS V14.01,2013-04-19 22:30:00,
2013-04-20 08:35:00,57.7,52.6,29.65,SW,225,2.9,4.0,83,0.17,,---,0.21,VWS V14.01,2013-04-19 22:35:00,
2013-04-20 08:40:00,57.7,52.6,29.65,SW,225,1.1,1.1,83,0.17,,---,0.21,VWS V14.01,2013-04-19 22:40:00,
2013-04-20 08:45:00,57.7,52.6,29.65,SSW,202,3.8,3.8,83,0.17,,---,0.21,VWS V14.01,2013-04-19 22:45:00,
2013-04-20 08:50:00,57.7,52.6,29.65,SW,225,1.6,8.1,83,0.13,,---,0.21,VWS V14.01,2013-04-19 22:50:00,
2013-04-20 08:55:00,57.9,52.8,29.65,South,180,1.6,1.6,83,0.13,,---,0.21,VWS V14.01,2013-04-19 22:55:00,
2013-04-20 09:00:00,57.9,52.8,29.65,SW,225,2.5,4.0,83,0.13,,---,0.21,VWS V14.01,2013-04-19 23:00:00,
2013-04-20 09:05:00,57.9,52.8,29.65,SSE,158,3.6,3.6,83,0.13,,---,0.21,VWS V14.01,2013-04-19 23:05:00,
2013-04-20 09:10:00,57.9,53.1,29.65,South,180,1.3,1.3,84,0.09,,---,0.21,VWS V14.01,2013-04-19 23:10:00,
2013-04-20 09:15:00,58.1,53.6,29.65,SSW,202,2.5,3.8,85,0.04,,---,0.21,VWS V14.01,2013-04-19 23:15:00,
2013-04-20 09:20:00,58.1,53.9,29.65,East,90,4.3,4.3,86,0.04,,---,0.21,VWS V14.01,2013-04-19 23:20:00,
2013-04-20 09:25:00,58.3,53.5,29.65,South,180,4.0,4.0,84,0.04,,---,0.21,VWS V14.01,2013-04-19 23:25:00,
2013-04-20 09:30:00,58.3,53.8,29.65,SW,225,1.6,3.6,85,0.04,,---,0.21,VWS V14.01,2013-04-19 23:30:00,
2013-04-20 09:35:00,58.5,54.0,29.65,South,180,2.7,3.1,85,0.00,,---,0.21,VWS V14.01,2013-04-19 23:35:00,
2013-04-20 09:40:00,58.5,54.0,29.65,SSW,202,4.3,4.3,85,0.00,,---,0.21,VWS V14.01,2013-04-19 23:40:00,
2013-04-20 09:45:00,58.5,53.7,29.65,SE,135,5.4,6.0,84,0.00,,---,0.21,VWS V14.01,2013-04-19 23:45:00,
2013-04-20 09:50:00,58.5,53.7,29.65,SSE,158,6.0,6.0,84,0.00,,---,0.21,VWS V14.01,2013-04-19 23:50:00,
2013-04-20 09:55:00,58.5,54.3,29.65,SW,225,5.8,5.8,86,0.00,,---,0.21,VWS V14.01,2013-04-19 23:55:00,
2013-04-20 10:00:00,58.5,53.7,29.65,SE,135,3.8,6.3,84,0.00,,---,0.21,VWS V14.01,2013-04-20 00:00:00,
2013-04-20 10:05:00,58.5,53.7,29.65,SSE,158,4.7,4.7,84,0.00,,---,0.21,VWS V14.01,2013-04-20 00:05:00,
2013-04-20 10:10:00,58.5,53.7,29.68,SW,225,7.4,7.4,84,0.04,,---,0.25,VWS V14.01,2013-04-20 00:10:00,
2013-04-20 10:15:00,58.5,54.0,29.68,WSW,248,4.5,4.5,85,0.08,,---,0.29,VWS V14.01,2013-04-20 00:15:00,
2013-04-20 10:20:00,58.5,54.0,29.68,SSW,202,1.6,1.6,85,0.08,,---,0.29,VWS V14.01,2013-04-20 00:20:00,
2013-04-20 10:25:00,58.3,53.8,29.65,SW,225,5.4,5.4,85,0.12,,---,0.33,VWS V14.01,2013-04-20 00:25:00,
2013-04-20 10:30:00,58.3,53.8,29.65,SW,225,4.0,7.2,85,0.12,,---,0.33,VWS V14.01,2013-04-20 00:30:00,
2013-04-20 10:35:00,58.3,53.8,29.65,SW,225,1.6,1.6,85,0.12,,---,0.33,VWS V14.01,2013-04-20 00:35:00,
2013-04-20 10:40:00,58.3,53.8,29.68,SE,135,1.3,2.0,85,0.16,,---,0.37,VWS V14.01,2013-04-20 00:40:00,
2013-04-20 10:45:00,58.3,54.1,29.68,WSW,248,2.5,4.9,86,0.16,,---,0.37,VWS V14.01,2013-04-20 00:45:00,
2013-04-20 10:50:00,58.3,54.1,29.68,WSW,248,3.4,3.4,86,0.20,,---,0.41,VWS V14.01,2013-04-20 00:50:00,
2013-04-20 10:55:00,58.3,54.1,29.68,SSW,202,1.6,3.1,86,0.20,,---,0.41,VWS V14.01,2013-04-20 00:55:00,
2013-04-20 11:00:00,58.3,54.1,29.68,SSW,202,2.5,2.5,86,0.20,,---,0.41,VWS V14.01,2013-04-20 01:00:00,
2013-04-20 11:05:00,58.3,54.1,29.68,West,270,2.5,2.5,86,0.20,,---,0.41,VWS V14.01,2013-04-20 01:05:00,
2013-04-20 11:10:00,58.5,54.3,29.68,SW,225,3.6,3.6,86,0.20,,---,0.45,VWS V14.01,2013-04-20 01:10:00,
2013-04-20 11:15:00,58.5,54.3,29.68,WSW,248,2.7,2.7,86,0.16,,---,0.45,VWS V14.01,2013-04-20 01:15:00,
2013-04-20 11:20:00,58.5,54.3,29.68,NW,315,1.6,1.6,86,0.16,,---,0.45,VWS V14.01,2013-04-20 01:20:00,
2013-04-20 11:25:00,58.5,54.6,29.65,SSW,202,7.6,7.6,87,0.12,,---,0.45,VWS V14.01,2013-04-20 01:25:00,
2013-04-20 11:30:00,58.5,54.6,29.65,South,180,5.4,5.4,87,0.12,,---,0.45,VWS V14.01,2013-04-20 01:30:00,
2013-04-20 11:35:00,58.5,54.6,29.65,SW,225,4.9,4.9,87,0.12,,---,0.45,VWS V14.01,2013-04-20 01:35:00,
2013-04-20 11:40:00,58.5,54.6,29.65,SSW,202,4.9,4.9,87,0.13,,---,0.50,VWS V14.01,2013-04-20 01:40:00,
2013-04-20 11:45:00,58.5,54.6,29.65,SW,225,6.0,6.0,87,0.17,,---,0.54,VWS V14.01,2013-04-20 01:45:00,
2013-04-20 11:50:00,58.5,54.6,29.65,SW,225,2.2,2.2,87,0.17,,---,0.54,VWS V14.01,2013-04-20 01:50:00,
2013-04-20 11:55:00,58.5,54.6,29.65,SW,225,8.5,8.5,87,0.25,,---,0.66,VWS V14.01,2013-04-20 01:55:00,
2013-04-20 12:00:00,58.5,54.9,29.65,South,180,3.8,3.8,88,0.25,,---,0.66,VWS V14.01,2013-04-20 02:00:00,
2013-04-20 12:05:00,58.5,54.9,29.65,SW,225,2.7,2.7,88,0.54,,---,0.95,VWS V14.01,2013-04-20 02:05:00,
2013-04-20 12:10:00,58.6,55.4,29.62,SSW,202,5.4,5.4,89,0.50,,---,0.95,VWS V14.01,2013-04-20 02:10:00,
2013-04-20 12:15:00,58.5,56.2,29.62,SW,225,4.3,4.3,92,0.50,,---,0.95,VWS V14.01,2013-04-20 02:15:00,
2013-04-20 12:20:00,58.6,56.3,29.62,WSW,248,3.8,3.8,92,0.55,,---,1.00,VWS V14.01,2013-04-20 02:20:00,
2013-04-20 12:25:00,58.8,56.2,29.62,ESE,112,4.0,4.0,91,0.55,,---,1.00,VWS V14.01,2013-04-20 02:25:00,
2013-04-20 12:30:00,58.8,56.8,29.62,SW,225,3.1,3.1,93,0.59,,---,1.04,VWS V14.01,2013-04-20 02:30:00,
2013-04-20 12:35:00,58.8,56.5,29.62,SSE,158,2.7,2.7,92,0.59,,---,1.04,VWS V14.01,2013-04-20 02:35:00,
2013-04-20 12:40:00,59.0,56.7,29.62,WSW,248,4.0,4.0,92,0.58,,---,1.08,VWS V14.01,2013-04-20 02:40:00,
2013-04-20 12:45:00,59.2,56.9,29.62,East,90,1.6,2.0,92,0.54,,---,1.08,VWS V14.01,2013-04-20 02:45:00,
2013-04-20 12:50:00,59.2,57.5,29.62,ESE,112,2.2,2.2,94,0.54,,---,1.08,VWS V14.01,2013-04-20 02:50:00,
2013-04-20 12:55:00,59.4,58.2,29.62,East,90,2.5,2.5,96,0.42,,---,1.08,VWS V14.01,2013-04-20 02:55:00,
2013-04-20 13:00:00,59.5,59.0,29.62,ENE,68,2.0,3.6,98,0.42,,---,1.08,VWS V14.01,2013-04-20 03:00:00,
2013-04-20 13:05:00,59.7,59.2,29.62,SE,135,3.1,3.1,98,0.13,,---,1.08,VWS V14.01,2013-04-20 03:05:00,
2013-04-20 13:10:00,59.7,59.2,29.62,WNW,292,4.0,4.0,98,0.13,,---,1.08,VWS V14.01,2013-04-20 03:10:00,
2013-04-20 13:15:00,59.5,59.0,29.62,ESE,112,2.2,3.8,98,0.13,,---,1.08,VWS V14.01,2013-04-20 03:15:00,
2013-04-20 13:20:00,59.4,58.8,29.62,NE,45,8.7,8.7,98,0.12,,---,1.12,VWS V14.01,2013-04-20 03:20:00,
2013-04-20 13:25:00,59.4,58.8,29.62,East,90,2.9,4.3,98,0.12,,---,1.12,VWS V14.01,2013-04-20 03:25:00,
2013-04-20 13:30:00,59.5,59.0,29.62,ESE,112,1.6,6.3,98,0.08,,---,1.12,VWS V14.01,2013-04-20 03:30:00,
2013-04-20 13:35:00,59.9,59.3,29.62,East,90,0.0,0.0,98,0.08,,---,1.12,VWS V14.01,2013-04-20 03:35:00,
2013-04-20 13:40:00,59.9,59.3,29.62,East,90,0.0,2.5,98,0.04,,---,1.12,VWS V14.01,2013-04-20 03:40:00,
2013-04-20 13:45:00,59.9,59.3,29.62,ENE,68,2.0,2.9,98,0.04,,---,1.12,VWS V14.01,2013-04-20 03:45:00,
2013-04-20 13:50:00,59.9,59.3,29.62,ESE,112,3.1,3.1,98,0.04,,---,1.12,VWS V14.01,2013-04-20 03:50:00,
2013-04-20 13:55:00,60.1,59.5,29.62,ENE,68,2.2,2.2,98,0.04,,---,1.12,VWS V14.01,2013-04-20 03:55:00,
2013-04-20 14:00:00,59.9,59.3,29.62,SE,135,4.0,5.6,98,0.04,,---,1.12,VWS V14.01,2013-04-20 04:00:00,
2013-04-20 14:01:00,59.7,59.2,29.62,SE,135,4.0,4.0,98,0.04,,---,1.12,VWS V14.01,2013-04-20 04:01:00,
2013-04-20 14:06:00,59.7,59.2,29.62,ESE,112,4.0,4.0,98,0.04,,---,1.12,VWS V14.01,2013-04-20 04:06:00,
2013-04-20 14:11:00,59.9,59.3,29.62,ESE,112,8.5,8.5,98,0.04,,---,1.12,VWS V14.01,2013-04-20 04:11:00,
2013-04-20 14:16:00,59.9,59.3,29.62,South,180,2.7,6.3,98,0.00,,---,1.12,VWS V14.01,2013-04-20 04:16:00,
2013-04-20 14:21:00,60.1,59.5,29.62,SE,135,2.5,2.7,98,0.00,,---,1.12,VWS V14.01,2013-04-20 04:21:00,
2013-04-20 14:26:00,60.4,59.9,29.65,SE,135,0.0,1.6,98,0.00,,---,1.12,VWS V14.01,2013-04-20 04:26:00,
2013-04-20 14:31:00,60.6,60.1,29.65,SE,135,2.7,2.7,98,0.00,,---,1.12,VWS V14.01,2013-04-20 04:31:00,
2013-04-20 14:36:00,60.8,60.2,29.65,SSE,158,1.3,2.2,98,0.00,,---,1.12,VWS V14.01,2013-04-20 04:36:00,
2013-04-20 14:41:00,61.0,60.4,29.65,SE,135,3.6,3.6,98,0.00,,---,1.12,VWS V14.01,2013-04-20 04:41:00,
2013-04-20 14:46:00,61.0,60.4,29.65,SE,135,1.6,1.6,98,0.00,,---,1.12,VWS V14.01,2013-04-20 04:46:00,
2013-04-20 14:51:00,61.0,60.4,29.65,East,90,3.4,3.4,98,0.00,,---,1.12,VWS V14.01,2013-04-20 04:51:00,
2013-04-20 14:56:00,60.8,60.2,29.65,SE,135,9.8,9.8,98,0.00,,---,1.12,VWS V14.01,2013-04-20 04:56:00,
2013-04-20 15:01:00,60.6,60.1,29.65,South,180,3.1,3.1,98,0.00,,---,1.12,VWS V14.01,2013-04-20 05:01:00,
2013-04-20 15:06:00,60.6,60.1,29.65,South,180,6.0,6.0,98,0.00,,---,1.12,VWS V14.01,2013-04-20 05:06:00,
2013-04-20 15:11:00,59.7,58.9,29.65,ESE,112,5.4,5.4,97,0.04,,---,1.16,VWS V14.01,2013-04-20 05:11:00,
2013-04-20 15:16:00,59.4,58.5,29.65,SE,135,3.1,3.1,97,0.04,,---,1.16,VWS V14.01,2013-04-20 05:16:00,
2013-04-20 15:21:00,59.2,58.3,29.65,SE,135,2.0,2.7,97,0.04,,---,1.16,VWS V14.01,2013-04-20 05:21:00,
2013-04-20 15:26:00,59.4,58.8,29.65,SW,225,2.9,2.9,98,0.04,,---,1.16,VWS V14.01,2013-04-20 05:26:00,
2013-04-20 15:31:00,59.4,58.8,29.65,East,90,3.8,3.8,98,0.13,,---,1.25,VWS V14.01,2013-04-20 05:31:00,
2013-04-20 15:36:00,58.6,58.1,29.65,SE,135,2.9,6.0,98,0.58,,---,1.70,VWS V14.01,2013-04-20 05:36:00,
2013-04-20 15:41:00,58.5,57.9,29.68,SSE,158,7.8,11.0,98,0.63,,---,1.75,VWS V14.01,2013-04-20 05:41:00,
2013-04-20 15:46:00,58.5,57.9,29.68,ESE,112,1.6,1.6,98,0.63,,---,1.75,VWS V14.01,2013-04-20 05:46:00,
2013-04-20 15:51:00,58.5,57.9,29.68,ESE,112,4.9,4.9,98,0.63,,---,1.75,VWS V14.01,2013-04-20 05:51:00,
2013-04-20 15:56:00,58.5,57.9,29.68,SW,225,3.8,5.4,98,0.67,,---,1.79,VWS V14.01,2013-04-20 05:56:00,
2013-04-20 16:01:00,58.6,58.1,29.68,SW,225,6.3,6.3,98,0.67,,---,1.79,VWS V14.01,2013-04-20 06:01:00,
2013-04-20 16:06:00,58.8,58.0,29.68,SE,135,3.4,4.7,97,0.67,,---,1.79,VWS V14.01,2013-04-20 06:06:00,
2013-04-20 16:11:00,58.8,58.0,29.68,SSE,158,3.8,4.3,97,0.63,,---,1.79,VWS V14.01,2013-04-20 06:11:00,
2013-04-20 16:16:00,59.0,57.9,29.68,SSE,158,2.5,2.5,96,0.63,,---,1.79,VWS V14.01,2013-04-20 06:16:00,
2013-04-20 16:21:00,59.0,57.9,29.68,ESE,112,7.6,7.6,96,0.63,,---,1.79,VWS V14.01,2013-04-20 06:21:00,
2013-04-20 16:26:00,59.0,57.9,29.68,ESE,112,4.3,4.3,96,0.63,,---,1.79,VWS V14.01,2013-04-20 06:26:00,
2013-04-20 16:31:00,59.0,57.9,29.68,SSE,158,3.1,5.4,96,0.54,,---,1.79,VWS V14.01,2013-04-20 06:31:00,
2013-04-20 16:36:00,59.0,57.9,29.68,SSW,202,3.4,4.9,96,0.09,,---,1.79,VWS V14.01,2013-04-20 06:36:00,
2013-04-20 16:41:00,59.0,57.9,29.68,South,180,2.7,2.7,96,0.04,,---,1.79,VWS V14.01,2013-04-20 06:41:00,
2013-04-20 16:46:00,59.0,57.6,29.68,SW,225,5.4,5.4,95,0.04,,---,1.79,VWS V14.01,2013-04-20 06:46:00,
2013-04-20 16:51:00,59.0,57.6,29.68,South,180,3.1,3.4,95,0.04,,---,1.79,VWS V14.01,2013-04-20 06:51:00,
2013-04-20 16:56:00,59.0,57.6,29.68,SSW,202,2.5,2.5,95,0.00,,---,1.79,VWS V14.01,2013-04-20 06:56:00,
2013-04-20 17:01:00,59.0,57.6,29.68,SSE,158,3.1,3.1,95,0.04,,---,1.83,VWS V14.01,2013-04-20 07:01:00,
2013-04-20 17:06:00,59.2,57.8,29.68,NNE,22,2.2,3.8,95,0.08,,---,1.87,VWS V14.01,2013-04-20 07:06:00,
2013-04-20 17:11:00,59.2,57.8,29.68,South,180,3.8,3.8,95,0.08,,---,1.87,VWS V14.01,2013-04-20 07:11:00,
2013-04-20 17:16:00,59.2,57.8,29.68,SSE,158,4.0,10.1,95,0.08,,---,1.87,VWS V14.01,2013-04-20 07:16:00,
2013-04-20 17:21:00,59.2,57.8,29.68,East,90,5.4,5.4,95,0.08,,---,1.87,VWS V14.01,2013-04-20 07:21:00,
2013-04-20 17:26:00,59.2,57.8,29.68,SSE,158,4.7,4.7,95,0.08,,---,1.87,VWS V14.01,2013-04-20 07:26:00,
2013-04-20 17:31:00,59.2,57.8,29.68,SE,135,2.5,3.1,95,0.08,,---,1.87,VWS V14.01,2013-04-20 07:31:00,
2013-04-20 17:36:00,59.2,57.8,29.68,SE,135,5.6,5.6,95,0.08,,---,1.87,VWS V14.01,2013-04-20 07:36:00,
2013-04-20 17:41:00,59.2,57.8,29.68,South,180,2.9,2.9,95,0.08,,---,1.87,VWS V14.01,2013-04-20 07:41:00,
2013-04-20 17:46:00,59.2,57.8,29.68,SSE,158,2.0,2.9,95,0.08,,---,1.87,VWS V14.01,2013-04-20 07:46:00,
2013-04-20 17:51:00,59.4,57.9,29.68,ESE,112,2.0,2.0,95,0.08,,---,1.87,VWS V14.01,2013-04-20 07:51:00,
2013-04-20 17:56:00,59.2,57.8,29.71,South,180,2.9,2.9,95,0.08,,---,1.87,VWS V14.01,2013-04-20 07:56:00,
2013-04-20 18:01:00,59.2,57.8,29.71,South,180,2.9,2.9,95,0.04,,---,1.87,VWS V14.01,2013-04-20 08:01:00,
2013-04-20 18:06:00,59.2,57.8,29.71,SW,225,0.0,0.0,95,0.00,,---,1.87,VWS V14.01,2013-04-20 08:06:00,
2013-04-20 18:11:00,59.2,57.5,29.71,WNW,292,3.8,3.8,94,0.00,,---,1.87,VWS V14.01,2013-04-20 08:11:00,
2013-04-20 18:16:00,59.2,57.5,29.71,SW,225,2.2,2.7,94,0.00,,---,1.87,VWS V14.01,2013-04-20 08:16:00,
2013-04-20 18:21:00,59.2,57.5,29.71,SW,225,1.3,1.3,94,0.00,,---,1.87,VWS V14.01,2013-04-20 08:21:00,
2013-04-20 18:26:00,59.2,57.5,29.71,South,180,1.6,2.9,94,0.00,,---,1.87,VWS V14.01,2013-04-20 08:26:00,
2013-04-20 18:31:00,59.2,57.5,29.71,South,180,2.2,3.1,94,0.00,,---,1.87,VWS V14.01,2013-04-20 08:31:00,
2013-04-20 18:36:00,59.0,57.3,29.71,SW,225,3.4,4.0,94,0.00,,---,1.87,VWS V14.01,2013-04-20 08:36:00,
2013-04-20 18:41:00,59.0,57.3,29.71,WSW,248,4.7,4.7,94,0.00,,---,1.87,VWS V14.01,2013-04-20 08:41:00,
2013-04-20 18:46:00,58.8,57.1,29.71,SE,135,3.4,3.4,94,0.00,,---,1.87,VWS V14.01,2013-04-20 08:46:00,
2013-04-20 18:51:00,58.8,57.1,29.71,SSW,202,2.9,2.9,94,0.00,,---,1.87,VWS V14.01,2013-04-20 08:51:00,
2013-04-20 18:56:00,58.6,56.9,29.71,SSW,202,4.3,4.3,94,0.00,,---,1.87,VWS V14.01,2013-04-20 08:56:00,
2013-04-20 19:01:00,58.6,56.9,29.71,SSW,202,3.1,3.1,94,0.00,,---,1.87,VWS V14.01,2013-04-20 09:01:00,
2013-04-20 19:06:00,58.6,56.9,29.71,South,180,1.1,2.0,94,0.00,,---,1.87,VWS V14.01,2013-04-20 09:06:00,
2013-04-20 19:11:00,58.6,56.9,29.71,South,180,1.6,4.0,94,0.00,,---,1.87,VWS V14.01,2013-04-20 09:11:00,
2013-04-20 19:16:00,58.5,56.5,29.71,SSW,202,5.6,5.6,93,0.00,,---,1.87,VWS V14.01,2013-04-20 09:16:00,
2013-04-20 19:21:00,58.5,56.5,29.71,ESE,112,5.4,5.4,93,0.00,,---,1.87,VWS V14.01,2013-04-20 09:21:00,
2013-04-20 19:26:00,58.5,56.5,29.71,South,180,8.7,8.7,93,0.00,,---,1.87,VWS V14.01,2013-04-20 09:26:00,
2013-04-20 19:31:00,58.5,56.5,29.71,West,270,1.1,1.1,93,0.00,,---,1.87,VWS V14.01,2013-04-20 09:31:00,
2013-04-20 19:36:00,58.5,56.5,29.71,SSW,202,1.6,3.6,93,0.00,,---,1.87,VWS V14.01,2013-04-20 09:36:00,
2013-04-20 19:41:00,58.5,56.5,29.71,SW,225,3.4,3.4,93,0.00,,---,1.87,VWS V14.01,2013-04-20 09:41:00,
2013-04-20 19:46:00,58.5,56.5,29.71,SSW,202,4.3,4.3,93,0.00,,---,1.87,VWS V14.01,2013-04-20 09:46:00,
2013-04-20 19:51:00,58.5,56.2,29.71,WSW,248,2.9,2.9,92,0.00,,---,1.87,VWS V14.01,2013-04-20 09:51:00,
2013-04-20 19:56:00,58.5,56.2,29.71,SSW,202,4.0,4.0,92,0.00,,---,1.87,VWS V14.01,2013-04-20 09:56:00,
2013-04-20 20:01:00,58.5,56.2,29.71,NW,315,2.9,2.9,92,0.00,,---,1.87,VWS V14.01,2013-04-20 10:01:00,
2013-04-20 20:06:00,58.5,56.2,29.71,South,180,6.5,6.5,92,0.00,,---,1.87,VWS V14.01,2013-04-20 10:06:00,
2013-04-20 20:11:00,58.5,56.2,29.74,South,180,6.5,6.5,92,0.00,,---,1.87,VWS V14.01,2013-04-20 10:11:00,
2013-04-20 20:16:00,58.5,56.2,29.74,SW,225,7.4,7.4,92,0.00,,---,1.87,VWS V14.01,2013-04-20 10:16:00,
2013-04-20 20:21:00,58.3,56.0,29.74,SE,135,5.6,5.6,92,0.00,,---,1.87,VWS V14.01,2013-04-20 10:21:00,
2013-04-20 20:26:00,58.3,56.0,29.74,WSW,248,4.5,4.5,92,0.00,,---,1.87,VWS V14.01,2013-04-20 10:26:00,
2013-04-20 20:31:00,58.3,56.0,29.74,SE,135,3.6,3.6,92,0.00,,---,1.87,VWS V14.01,2013-04-20 10:31:00,
2013-04-20 20:36:00,58.1,55.8,29.74,SSW,202,3.8,3.8,92,0.00,,---,1.87,VWS V14.01,2013-04-20 10:36:00,
2013-04-20 20:41:00,58.1,55.8,29.74,SSE,158,3.4,3.4,92,0.00,,---,1.87,VWS V14.01,2013-04-20 10:41:00,
2013-04-20 20:46:00,58.1,55.8,29.74,SSW,202,1.1,3.4,92,0.00,,---,1.87,VWS V14.01,2013-04-20 10:46:00,
2013-04-20 20:51:00,58.1,55.8,29.74,South,180,3.8,3.8,92,0.00,,---,1.87,VWS V14.01,2013-04-20 10:51:00,
2013-04-20 20:56:00,58.3,56.0,29.74,WSW,248,7.2,7.2,92,0.00,,---,1.87,VWS V14.01,2013-04-20 10:56:00,
2013-04-20 21:01:00,58.3,56.0,29.74,SE,135,3.4,3.8,92,0.00,,---,1.87,VWS V14.01,2013-04-20 11:01:00,
2013-04-20 21:06:00,58.1,55.8,29.74,SE,135,5.4,5.4,92,0.00,,---,1.87,VWS V14.01,2013-04-20 11:06:00,
2013-04-20 21:11:00,58.1,55.5,29.74,WSW,248,3.8,3.8,91,0.00,,---,1.87,VWS V14.01,2013-04-20 11:11:00,
2013-04-20 21:16:00,58.1,55.5,29.74,South,180,3.8,3.8,91,0.00,,---,1.87,VWS V14.01,2013-04-20 11:16:00,
2013-04-20 21:21:00,57.9,55.3,29.74,SSW,202,5.8,5.8,91,0.00,,---,1.87,VWS V14.01,2013-04-20 11:21:00,
2013-04-20 21:26:00,57.9,55.3,29.74,WSW,248,6.7,6.7,91,0.00,,---,1.87,VWS V14.01,2013-04-20 11:26:00,
2013-04-20 21:31:00,57.7,55.1,29.74,SW,225,4.0,4.0,91,0.00,,---,1.87,VWS V14.01,2013-04-20 11:31:00,
2013-04-20 21:36:00,57.7,54.8,29.74,SW,225,2.5,4.0,90,0.00,,---,1.87,VWS V14.01,2013-04-20 11:36:00,
2013-04-20 21:41:00,57.7,54.8,29.74,SSE,158,2.7,2.7,90,0.00,,---,1.87,VWS V14.01,2013-04-20 11:41:00,
2013-04-20 21:46:00,57.7,54.8,29.74,SE,135,2.0,2.0,90,0.00,,---,1.87,VWS V14.01,2013-04-20 11:46:00,
2013-04-20 21:51:00,57.7,54.8,29.74,SSW,202,2.9,2.9,90,0.00,,---,1.87,VWS V14.01,2013-04-20 11:51:00,
2013-04-20 21:56:00,57.7,55.1,29.74,SE,135,3.6,3.6,91,0.00,,---,1.87,VWS V14.01,2013-04-20 11:56:00,
2013-04-20 22:01:00,57.6,55.0,29.74,WSW,248,7.6,8.7,91,0.00,,---,1.87,VWS V14.01,2013-04-20 12:01:00,
2013-04-20 22:06:00,57.6,55.0,29.74,SSE,158,3.4,3.6,91,0.00,,---,1.87,VWS V14.01,2013-04-20 12:06:00,
2013-04-20 22:11:00,57.4,54.5,29.74,SSW,202,3.6,3.6,90,0.00,,---,1.87,VWS V14.01,2013-04-20 12:11:00,
2013-04-20 22:16:00,57.4,54.5,29.74,SW,225,2.9,2.9,90,0.00,,---,1.87,VWS V14.01,2013-04-20 12:16:00,
2013-04-20 22:21:00,57.2,54.3,29.74,South,180,4.7,4.7,90,0.00,,---,1.87,VWS V14.01,2013-04-20 12:21:00,
2013-04-20 22:26:00,57.2,54.3,29.74,South,180,5.6,5.6,90,0.00,,---,1.87,VWS V14.01,2013-04-20 12:26:00,
2013-04-20 22:31:00,57.2,54.3,29.74,SSE,158,3.6,3.6,90,0.00,,---,1.87,VWS V14.01,2013-04-20 12:31:00,
2013-04-20 22:36:00,57.2,54.3,29.74,SW,225,2.7,2.7,90,0.00,,---,1.87,VWS V14.01,2013-04-20 12:36:00,
2013-04-20 22:41:00,57.2,54.3,29.74,SW,225,3.4,6.3,90,0.00,,---,1.87,VWS V14.01,2013-04-20 12:41:00,
2013-04-20 22:46:00,57.2,54.3,29.74,SW,225,3.8,3.8,90,0.00,,---,1.87,VWS V14.01,2013-04-20 12:46:00,
2013-04-20 22:51:00,57.2,54.3,29.74,SSE,158,3.6,3.6,90,0.00,,---,1.87,VWS V14.01,2013-04-20 12:51:00,
2013-04-20 22:56:00,57.2,54.3,29.74,ENE,68,2.7,2.7,90,0.00,,---,1.87,VWS V14.01,2013-04-20 12:56:00,
2013-04-20 23:01:00,57.2,54.3,29.74,South,180,2.7,3.1,90,0.00,,---,1.87,VWS V14.01,2013-04-20 13:01:00,
2013-04-20 23:06:00,57.0,54.1,29.74,SSE,158,2.7,5.6,90,0.00,,---,1.87,VWS V14.01,2013-04-20 13:06:00,
2013-04-20 23:11:00,57.0,54.1,29.74,SSW,202,6.3,6.3,90,0.00,,---,1.87,VWS V14.01,2013-04-20 13:11:00,
2013-04-20 23:16:00,57.0,54.1,29.74,SSW,202,4.3,6.5,90,0.00,,---,1.87,VWS V14.01,2013-04-20 13:16:00,
2013-04-20 23:21:00,56.8,53.9,29.74,South,180,2.9,3.1,90,0.00,,---,1.87,VWS V14.01,2013-04-20 13:21:00,
2013-04-20 23:26:00,56.8,53.9,29.74,South,180,4.9,4.9,90,0.00,,---,1.87,VWS V14.01,2013-04-20 13:26:00,
2013-04-20 23:31:00,56.8,53.9,29.74,SSW,202,7.4,7.4,90,0.00,,---,1.87,VWS V14.01,2013-04-20 13:31:00,
2013-04-20 23:36:00,56.8,53.9,29.74,SW,225,5.8,5.8,90,0.00,,---,1.87,VWS V14.01,2013-04-20 13:36:00,
2013-04-20 23:41:00,56.8,53.6,29.74,SW,225,2.9,3.6,89,0.00,,---,1.87,VWS V14.01,2013-04-20 13:41:00,
2013-04-20 23:46:00,56.8,53.6,29.74,NW,315,4.0,4.9,89,0.00,,---,1.87,VWS V14.01,2013-04-20 13:46:00,
2013-04-20 23:51:00,56.7,53.5,29.74,SSE,158,13.4,13.4,89,0.00,,---,1.87,VWS V14.01,2013-04-20 13:51:00,
2013-04-20 23:56:00,56.7,53.5,29.74,South,180,1.6,3.6,89,0.00,,---,1.87,VWS V14.01,2013-04-20 13:56:00,